SCP
0 0 -0 -0 0 -0 -0 -0 0 -0 -0 0 0 0 0 0 0 0 0 -0 0 0 0 0 0 0 0 0 0 0 0 0 0 0 0 0 0 0
0 0 0 -0 0 0 0 0 0 0 0 0 0 0 0 0 0 0 0 0 0 0 0 0 0 0 0 0 0 0 0 0 0 0 0 0 0 0
0 0 0 0 0 0 0 0 0 0 0 0 0 0 0 0 0 0 0 0 0 0 0 0 0 0 0 0 0 0 0 0 0 0 0 0 0 0
0 0 0 0 0 0 0 0 0 0 0 0 0 0 0 0 1 0 0 0 0 0 0 0 0 0 0 0 0 0 0 0 0 0 0 0 0 0
0 0 0 0 0 0 0 0 0 0 0 0 0 0 0 0 0 0 0 0 0 0 0 0 0 0 0 0 0 0 0 0 0 0 0 0 0 0
0 0 0 0 0 0 0 0 0 0 0 0 0 0 0 1 1 0 0 0 0 0 0 0 0 0 0 0 0 0 0 0 0 0 0 0 0 0
0 0 0 0 0 0 0 0 0 1 0 0 0 0 0 1 0 1 0 0 0 0 0 0 0 0 0 0 0 0 0 0 0 0 0 0 0 0
0 0 0 0 0 0 0 0 0 0 0 0 0 0 0 1 1 1 1 0 0 0 0 0 0 0 0 0 0 0 0 0 0 0 0 0 0 0
0 0 0 0 0 0 0 0 0 0 0 0 0 0 1 1 1 2 1 0 0 0 0 0 0 0 0 0 0 0 0 0 0 0 0 0 0 0
0 0 0 0 1 1 1 1 0 0 1 0 0 0 1 1 2 2 2 2 1 0 0 0 0 0 0 0 0 0 0 0 0 0 0 0 0 0
0 1 0 0 0 1 1 0 0 0 0 1 0 0 0 0 1 3 3 1 0 0 0 0 0 0 0 0 0 0 0 0 0 0 0 0 0 0
0 1 0 0 1 0 1 1 0 0 1 1 1 0 0 0 0 1 4 2 1 0 0 0 0 0 0 0 0 0 0 0 0 0 0 0 0 0
1 2 1 0 0 0 0 1 1 1 1 2 1 2 1 1 1 1 2 2 1 0 0 0 0 0 0 0 0 0 0 -0 0 0 0 -0 -0 -0
1 2 2 0 0 0 0 0 0 0 1 2 3 2 1 0 0 0 0 0 0 0 0 0 0 0 0 0 0 0 -0 -0 -0 0 0 0 -0 -0
0 0 0 0 0 0 0 0 0 0 0 1 1 0 0 0 0 0 0 0 0 0 0 0 0 0 0 0 0 0 0 -0 -0 -0 0 0 0 0
0 0 0 0 0 0 0 0 0 0 0 0 0 0 0 0 0 0 0 0 0 0 0 0 0 0 0 0 0 0 0 0 -0 -0 0 0 0 0
0 0 0 0 0 0 0 0 0 0 0 0 0 0 0 0 0 0 0 0 0 0 0 0 0 0 0 0 0 0 0 0 0 0 0 0 0 0
0 0 0 0 0 0 0 0 0 0 0 0 0 0 0 0 0 0 0 0 0 0 0 0 0 0 0 0 0 0 0 -0 0 0 0 0 0 0
0 0 0 0 0 0 0 0 0 0 0 0 0 0 0 0 0 0 0 0 0 0 0 0 0 0 0 0 0 0 0 0 0 0 0 0 0 0
0 0 0 0 0 0 0 0 0 0 0 0 0 0 0 0 0 0 0 0 0 0 0 0 0 0 0 -0 0 0 0 0 0 0 0 0 0 0
0 0 0 0 0 0 0 0 0 0 0 0 0 0 0 0 0 0 0 0 -0 -0 0 0 0 0 0 0 0 0 0 0 0 0 0 0 0 0
0 0 0 0 0 0 0 0 0 0 0 0 0 0 0 0 -0 -0 -0 -0 0 0 0 -0 -0 0 0 0 0 0 0 0 0 0 0 0 0 0
0 0 0 0 0 0 0 0 0 0 0 0 0 0 -0 -0 -0 -0 -0 0 0 -0 -0 0 0 0 0 0 0 0 0 0 0 0 0 0 0 0
Wind_Speed_500mb
16 17 14 14 16 14 14 13 12 9 14 18 10 11 15 19 16 16 22 15 16 16 16 16 15 14 12 11 14 15 15 16 17 15 16 16 15 15
20 24 22 19 21 18 19 17 17 17 18 10 9 14 12 15 17 15 21 21 21 20 20 20 18 16 13 21 15 15 17 20 20 19 17 18 16 10
20 22 22 24 23 21 20 19 20 18 19 14 15 19 18 21 26 15 21 18 22 22 21 21 21 21 20 16 17 21 20 20 20 18 15 13 11 7
25 27 24 21 26 28 25 24 23 21 21 19 16 18 20 22 25 23 24 25 27 21 22 22 23 23 21 21 20 19 22 25 22 18 16 14 8 6
30 31 27 27 29 24 25 24 28 25 28 23 22 18 17 19 21 25 27 28 26 25 25 23 24 24 24 22 23 23 28 29 25 19 15 11 9 8
31 30 28 31 29 26 24 26 30 25 27 27 27 26 24 23 22 22 27 30 27 26 27 28 24 24 27 27 26 25 26 28 25 21 18 13 12 15
34 34 32 33 36 34 27 28 32 31 29 30 30 29 30 30 21 26 26 28 30 31 29 29 29 27 31 33 33 30 28 27 28 25 19 17 19 20
39 36 37 44 43 42 43 41 41 35 33 36 32 35 34 32 30 30 32 32 36 37 35 36 33 33 33 36 33 34 34 32 26 23 21 21 22 24
43 41 40 39 40 40 40 42 45 47 48 47 45 43 42 38 37 37 38 37 29 37 35 43 39 39 39 38 35 29 25 27 25 25 25 23 25 25
50 48 48 50 48 43 39 40 41 43 50 53 56 55 50 41 42 38 39 37 39 45 41 45 46 47 44 35 29 29 34 29 28 26 25 26 28 27
50 50 49 49 52 47 47 48 45 44 44 53 56 54 54 48 48 41 38 44 51 55 55 53 52 52 41 34 38 39 36 32 25 23 28 27 24 23
42 47 53 56 53 51 50 52 54 50 49 48 55 51 55 59 57 57 53 55 53 56 63 59 57 56 36 39 41 44 38 32 24 23 25 24 24 21
42 43 40 46 53 52 57 59 53 50 54 54 55 52 40 56 65 60 60 63 65 70 74 62 67 62 40 62 51 43 33 33 33 31 30 27 25 25
45 39 38 47 51 48 49 51 51 52 55 59 60 56 60 73 70 69 70 71 70 76 86 65 60 70 61 73 59 45 40 37 33 32 31 27 22 20
48 49 49 49 49 49 49 53 59 62 64 64 61 61 63 72 71 70 67 62 59 53 33 35 44 55 46 55 50 45 44 43 34 28 26 24 18 19
49 51 52 58 59 64 62 57 58 61 60 59 56 56 54 55 52 52 56 57 37 27 27 40 51 50 52 42 37 45 41 31 39 36 29 23 15 14
45 43 44 46 47 46 45 47 47 44 43 51 49 46 49 43 38 37 39 43 51 72 68 57 43 39 41 32 30 35 43 36 36 31 23 17 18 15
42 40 33 33 38 39 37 37 34 31 30 34 39 36 24 26 26 37 52 70 75 67 63 56 51 39 34 30 27 32 36 32 29 28 21 16 13 14
38 32 34 35 32 29 29 21 19 15 13 16 26 31 35 33 43 55 57 59 58 54 44 41 43 33 30 34 29 33 30 29 23 22 20 19 17 16
27 28 30 27 23 21 18 14 12 14 17 28 32 38 42 56 66 65 59 52 50 46 37 32 26 30 30 37 34 33 26 20 21 17 16 17 21 22
20 21 21 19 17 16 15 14 17 23 28 33 44 59 65 67 62 58 59 45 35 30 28 28 30 30 31 29 32 29 25 27 24 19 19 14 12 9
13 9 7 8 9 8 10 15 23 29 40 54 63 65 58 52 55 52 40 34 30 28 27 35 34 29 25 21 22 24 21 22 27 26 24 19 8 8
8 10 12 14 17 22 29 37 44 53 61 65 59 53 51 45 42 30 33 31 30 25 27 32 28 25 22 19 22 22 22 21 17 13 11 9 12 15
Wind_Direction_500mb
254 261 261 261 260 257 256 253 264 263 266 199 247 234 222 233 244 251 227 257 271 265 265 265 257 245 239 224 246 234 236 245 242 246 261 274 283 284
251 254 258 252 252 251 252 253 251 257 273 264 247 242 216 238 249 234 244 267 272 264 264 271 256 241 240 263 225 227 248 240 239 247 256 272 280 286
242 246 260 258 247 245 250 240 244 242 254 260 259 256 245 230 249 249 267 249 268 262 261 265 250 242 274 231 239 256 243 232 237 240 253 259 267 256
248 252 256 254 248 237 240 247 253 248 243 264 261 260 252 252 253 266 262 257 267 268 267 258 241 249 256 250 256 253 241 234 230 234 240 256 221 183
248 247 248 246 247 238 246 250 253 249 252 247 254 253 244 244 257 263 264 262 265 264 259 249 245 255 253 252 261 261 250 240 238 230 235 201 168 170
252 247 247 246 247 248 250 249 252 246 249 249 251 256 255 253 252 265 262 261 261 256 252 254 247 249 243 246 250 255 249 253 229 201 183 182 170 158
246 248 248 246 243 248 248 259 242 245 241 249 256 257 260 251 242 261 266 259 257 259 260 244 244 246 244 250 247 246 248 225 191 172 176 166 158 153
253 252 252 247 252 252 257 258 258 252 248 246 249 257 257 255 256 251 250 245 243 254 252 242 239 242 237 243 242 252 237 216 188 165 161 162 158 153
249 252 253 249 256 252 257 257 255 254 255 252 252 253 255 256 255 253 251 263 249 258 243 233 235 232 236 245 240 226 213 174 160 157 163 162 160 159
248 251 252 254 248 247 251 252 255 256 256 254 258 263 266 262 252 251 256 254 238 244 249 234 227 225 234 232 219 193 164 159 153 159 167 169 167 166
250 250 249 250 255 255 257 257 255 253 258 264 261 258 264 266 264 255 247 241 241 245 241 240 228 218 217 210 186 171 158 155 169 181 176 170 171 177
258 261 254 251 257 263 262 260 260 258 259 252 263 264 260 261 258 257 253 248 252 249 250 235 224 211 178 185 175 169 166 164 169 186 178 172 180 178
252 250 250 263 263 262 264 258 258 259 259 261 262 261 261 261 261 258 250 255 257 259 259 246 224 204 182 174 173 169 168 166 170 180 175 177 181 171
253 254 251 252 262 262 262 264 266 266 265 264 264 267 271 277 269 262 256 253 251 256 251 237 222 200 187 170 165 174 169 173 182 183 182 182 185 186
258 261 263 265 264 268 270 268 266 264 267 266 268 267 268 267 265 260 254 250 259 253 240 241 225 175 166 162 163 172 175 181 178 193 196 198 193 209
261 264 267 268 268 273 276 272 269 270 270 267 264 263 266 265 256 246 244 231 239 185 155 150 145 141 134 147 165 180 179 180 191 199 199 194 201 232
269 270 274 276 274 273 275 278 276 272 269 260 256 255 255 254 250 237 216 195 179 154 146 136 143 140 132 143 166 191 183 195 194 190 182 188 209 205
264 270 273 270 275 277 279 280 269 267 264 255 248 244 234 213 201 184 177 161 147 143 146 142 134 133 138 153 177 191 182 173 180 183 177 185 206 208
257 269 271 272 271 267 269 273 275 269 258 239 225 200 179 173 170 159 146 136 132 134 136 138 136 150 159 162 174 171 197 181 185 182 189 208 228 221
255 262 269 265 257 255 256 260 242 221 203 191 186 173 162 152 143 139 135 131 128 131 136 141 148 164 161 169 164 159 160 168 174 186 191 186 202 203
251 264 258 246 242 239 238 216 197 184 178 168 158 151 145 138 133 132 135 136 140 141 140 141 158 160 161 171 171 168 176 171 162 168 167 170 179 205
235 240 209 189 181 187 174 165 161 157 152 148 142 137 134 136 140 143 138 144 147 149 154 162 158 164 160 158 163 163 162 167 172 176 186 187 202 248
165 161 149 143 138 135 135 136 136 134 135 137 139 139 141 145 148 144 148 154 148 153 154 158 160 162 160 166 170 168 175 176 184 203 229 231 261 264
Wind_Speed_850mb
16 17 14 14 16 14 14 13 12 9 14 18 10 11 15 19 16 16 22 15 16 16 16 16 15 14 12 11 14 15 15 16 17 15 16 16 15 15
20 24 22 19 21 18 19 17 17 17 18 10 9 14 12 15 17 15 21 21 21 20 20 20 18 16 13 21 15 15 17 20 20 19 17 18 16 10
20 22 22 24 23 21 20 19 20 18 19 14 15 19 18 21 26 15 21 18 22 22 21 21 21 21 20 16 17 21 20 20 20 18 15 13 11 7
25 27 24 21 26 28 25 24 23 21 21 19 16 18 20 22 25 23 24 25 27 21 22 22 23 23 21 21 20 19 22 25 22 18 16 14 8 6
30 31 27 27 29 24 25 24 28 25 28 23 22 18 17 19 21 25 27 28 26 25 25 23 24 24 24 22 23 23 28 29 25 19 15 11 9 8
31 30 28 31 29 26 24 26 30 25 27 27 27 26 24 23 22 22 27 30 27 26 27 28 24 24 27 27 26 25 26 28 25 21 18 13 12 15
34 34 32 33 36 34 27 28 32 31 29 30 30 29 30 30 21 26 26 28 30 31 29 29 29 27 31 33 33 30 28 27 28 25 19 17 19 20
39 36 37 44 43 42 43 41 41 35 33 36 32 35 34 32 30 30 32 32 36 37 35 36 33 33 33 36 33 34 34 32 26 23 21 21 22 24
43 41 40 39 40 40 40 42 45 47 48 47 45 43 42 38 37 37 38 37 29 37 35 43 39 39 39 38 35 29 25 27 25 25 25 23 25 25
50 48 48 50 48 43 39 40 41 43 50 53 56 55 50 41 42 38 39 37 39 45 41 45 46 47 44 35 29 29 34 29 28 26 25 26 28 27
50 50 49 49 52 47 47 48 45 44 44 53 56 54 54 48 48 41 38 44 51 55 55 53 52 52 41 34 38 39 36 32 25 23 28 27 24 23
42 47 53 56 53 51 50 52 54 50 49 48 55 51 55 59 57 57 53 55 53 56 63 59 57 56 36 39 41 44 38 32 24 23 25 24 24 21
42 43 40 46 53 52 57 59 53 50 54 54 55 52 40 56 65 60 60 63 65 70 74 62 67 62 40 62 51 43 33 33 33 31 30 27 25 25
45 39 38 47 51 48 49 51 51 52 55 59 60 56 60 73 70 69 70 71 70 76 86 65 60 70 61 73 59 45 40 37 33 32 31 27 22 20
48 49 49 49 49 49 49 53 59 62 64 64 61 61 63 72 71 70 67 62 59 53 33 35 44 55 46 55 50 45 44 43 34 28 26 24 18 19
49 51 52 58 59 64 62 57 58 61 60 59 56 56 54 55 52 52 56 57 37 27 27 40 51 50 52 42 37 45 41 31 39 36 29 23 15 14
45 43 44 46 47 46 45 47 47 44 43 51 49 46 49 43 38 37 39 43 51 72 68 57 43 39 41 32 30 35 43 36 36 31 23 17 18 15
42 40 33 33 38 39 37 37 34 31 30 34 39 36 24 26 26 37 52 70 75 67 63 56 51 39 34 30 27 32 36 32 29 28 21 16 13 14
38 32 34 35 32 29 29 21 19 15 13 16 26 31 35 33 43 55 57 59 58 54 44 41 43 33 30 34 29 33 30 29 23 22 20 19 17 16
27 28 30 27 23 21 18 14 12 14 17 28 32 38 42 56 66 65 59 52 50 46 37 32 26 30 30 37 34 33 26 20 21 17 16 17 21 22
20 21 21 19 17 16 15 14 17 23 28 33 44 59 65 67 62 58 59 45 35 30 28 28 30 30 31 29 32 29 25 27 24 19 19 14 12 9
13 9 7 8 9 8 10 15 23 29 40 54 63 65 58 52 55 52 40 34 30 28 27 35 34 29 25 21 22 24 21 22 27 26 24 19 8 8
8 10 12 14 17 22 29 37 44 53 61 65 59 53 51 45 42 30 33 31 30 25 27 32 28 25 22 19 22 22 22 21 17 13 11 9 12 15
Wind_Direction_850mb
254 261 261 261 260 257 256 253 264 263 266 199 247 234 222 233 244 251 227 257 271 265 265 265 257 245 239 224 246 234 236 245 242 246 261 274 283 284
251 254 258 252 252 251 252 253 251 257 273 264 247 242 216 238 249 234 244 267 272 264 264 271 256 241 240 263 225 227 248 240 239 247 256 272 280 286
242 246 260 258 247 245 250 240 244 242 254 260 259 256 245 230 249 249 267 249 268 262 261 265 250 242 274 231 239 256 243 232 237 240 253 259 267 256
248 252 256 254 248 237 240 247 253 248 243 264 261 260 252 252 253 266 262 257 267 268 267 258 241 249 256 250 256 253 241 234 230 234 240 256 221 183
248 247 248 246 247 238 246 250 253 249 252 247 254 253 244 244 257 263 264 262 265 264 259 249 245 255 253 252 261 261 250 240 238 230 235 201 168 170
252 247 247 246 247 248 250 249 252 246 249 249 251 256 255 253 252 265 262 261 261 256 252 254 247 249 243 246 250 255 249 253 229 201 183 182 170 158
246 248 248 246 243 248 248 259 242 245 241 249 256 257 260 251 242 261 266 259 257 259 260 244 244 246 244 250 247 246 248 225 191 172 176 166 158 153
253 252 252 247 252 252 257 258 258 252 248 246 249 257 257 255 256 251 250 245 243 254 252 242 239 242 237 243 242 252 237 216 188 165 161 162 158 153
249 252 253 249 256 252 257 257 255 254 255 252 252 253 255 256 255 253 251 263 249 258 243 233 235 232 236 245 240 226 213 174 160 157 163 162 160 159
248 251 252 254 248 247 251 252 255 256 256 254 258 263 266 262 252 251 256 254 238 244 249 234 227 225 234 232 219 193 164 159 153 159 167 169 167 166
250 250 249 250 255 255 257 257 255 253 258 264 261 258 264 266 264 255 247 241 241 245 241 240 228 218 217 210 186 171 158 155 169 181 176 170 171 177
258 261 254 251 257 263 262 260 260 258 259 252 263 264 260 261 258 257 253 248 252 249 250 235 224 211 178 185 175 169 166 164 169 186 178 172 180 178
252 250 250 263 263 262 264 258 258 259 259 261 262 261 261 261 261 258 250 255 257 259 259 246 224 204 182 174 173 169 168 166 170 180 175 177 181 171
253 254 251 252 262 262 262 264 266 266 265 264 264 267 271 277 269 262 256 253 251 256 251 237 222 200 187 170 165 174 169 173 182 183 182 182 185 186
258 261 263 265 264 268 270 268 266 264 267 266 268 267 268 267 265 260 254 250 259 253 240 241 225 175 166 162 163 172 175 181 178 193 196 198 193 209
261 264 267 268 268 273 276 272 269 270 270 267 264 263 266 265 256 246 244 231 239 185 155 150 145 141 134 147 165 180 179 180 191 199 199 194 201 232
269 270 274 276 274 273 275 278 276 272 269 260 256 255 255 254 250 237 216 195 179 154 146 136 143 140 132 143 166 191 183 195 194 190 182 188 209 205
264 270 273 270 275 277 279 280 269 267 264 255 248 244 234 213 201 184 177 161 147 143 146 142 134 133 138 153 177 191 182 173 180 183 177 185 206 208
257 269 271 272 271 267 269 273 275 269 258 239 225 200 179 173 170 159 146 136 132 134 136 138 136 150 159 162 174 171 197 181 185 182 189 208 228 221
255 262 269 265 257 255 256 260 242 221 203 191 186 173 162 152 143 139 135 131 128 131 136 141 148 164 161 169 164 159 160 168 174 186 191 186 202 203
251 264 258 246 242 239 238 216 197 184 178 168 158 151 145 138 133 132 135 136 140 141 140 141 158 160 161 171 171 168 176 171 162 168 167 170 179 205
235 240 209 189 181 187 174 165 161 157 152 148 142 137 134 136 140 143 138 144 147 149 154 162 158 164 160 158 163 163 162 167 172 176 186 187 202 248
165 161 149 143 138 135 135 136 136 134 135 137 139 139 141 145 148 144 148 154 148 153 154 158 160 162 160 166 170 168 175 176 184 203 229 231 261 264